[[{"header":{"parameterUnit":"m.s-1","parameterCategory":1,"la1":30.2991,"la2":30.254,"lo1":-89.0895,"lo2":-89.0444,"dy":0.0017,"dx":0.0017,"nx":28,"ny":28,"refTime":"2024-08-09T21:00:00:Z","depth":0,"parameterNumber":2,"parameterNumberName":"U-component_of_WINDS"},"data":[0,0,0,0,0,0,0,0,0,0,0,0,0,0,0,0,0,0,0,0,0,0,0,0,0,0,0,0,0,0,0,0,0,0,0,0,0,0,0,0,0,0,0,0,0,0,0,0,0,0,0,0,0,0,0,0,0,0,2.0665,2.0666,0,2.0773,2.0774,2.0776,2.0764,2.0762,2.076,2.0759,2.0872,2.0876,2.0881,0,0,0,0,0,0,0,0,0,0,0,0,0,2.0451,2.0455,2.0665,2.0666,2.0667,2.0773,2.0774,2.0776,2.0764,2.0762,2.076,2.0758,2.087,2.0876,2.0881,0,0,0,0,0,0,0,0,0,0,0,0,0,2.055,2.0456,2.0664,2.0674,2.0676,2.0773,2.0774,2.0776,2.0764,2.0762,2.0759,2.0757,2.0869,2.0875,2.0882,2.0977,0,0,2.0903,2.0906,0,0,0,0,0,0,0,0,2.0544,2.0558,2.0671,2.0674,2.0676,2.0752,2.0741,2.0844,2.0765,2.0731,2.0759,2.0756,2.0834,2.0844,2.087,2.0982,2.0987,2.0904,2.0908,2.0911,2.0913,0,0,0,0,0,0,0,2.0538,2.0553,2.0708,2.0673,2.0676,2.0674,2.0685,2.076,2.0796,2.0734,2.0733,2.0746,2.0835,2.0863,2.0873,2.0989,2.0904,2.091,2.0914,2.0917,2.1187,2.119,0,0,0,0,0,0,2.0528,2.0548,2.0704,2.0711,2.0602,2.068,2.0693,2.073,2.0795,2.0802,2.0748,2.0745,2.0853,2.0864,2.0876,2.0993,2.0911,2.0918,2.0922,2.1184,2.1187,2.1191,0,0,0,0,0,0,2.0523,2.0542,2.07,2.0629,2.0649,2.0687,2.0729,2.0734,2.0762,2.0806,2.0812,2.077,2.0851,2.0867,2.0952,2.0997,2.0921,2.0927,2.118,2.1185,2.1189,2.1227,0,0,0,0,0,0,2.0517,2.054,2.0576,2.063,2.0653,2.0773,2.0732,2.0738,2.0774,2.0771,2.0828,2.0835,2.085,2.0942,2.0959,2.1005,2.0932,2.1176,2.1182,2.1188,2.1222,2.1232,2.1241,0,0,0,0,0,2.051,2.0582,2.0578,2.0597,2.0698,2.0775,2.0789,2.0804,2.0777,2.0814,2.0843,2.0834,2.0989,2.0951,2.097,2.1019,2.1174,2.1181,2.1187,2.1218,2.123,2.1241,0,0,0,0,0,0,2.0532,2.0589,2.0585,2.0677,2.0721,2.0773,2.082,2.0816,2.087,2.0865,2.0882,2.0895,2.0982,2.1009,2.0965,2.1115,2.1078,2.1089,2.1095,2.1107,2.1116,2.1109,2.0938,0,0,0,0,0,2.0548,2.0605,2.0652,2.0729,2.0752,2.0782,2.0816,2.0824,2.0871,2.089,2.0925,2.0972,2.1032,2.1071,2.1128,2.1225,2.1239,2.1269,2.1278,2.1286,2.1296,2.1352,2.1366,2.1213,2.1213,2.1213,0,0,2.0581,2.0619,2.0654,2.0735,2.077,2.0831,2.0798,2.0863,2.0908,2.09,2.0984,2.1011,2.1065,2.1157,2.12,2.1183,2.1341,2.1295,2.13,2.1306,2.136,2.1375,2.1388,2.1217,2.1217,2.1216,0,0,2.0672,2.0706,2.0775,2.0811,2.0865,2.0885,2.0902,2.0955,2.0973,2.1056,2.1053,2.1108,2.1209,2.1249,2.1282,2.139,2.1385,2.1408,2.1459,2.1513,2.1525,2.1536,2.1577,2.1591,2.1418,2.1418,2.1418,0,2.0707,2.0797,2.0811,2.0877,2.0913,2.0909,2.0979,2.1014,2.1085,2.111,2.109,2.1219,2.1255,2.1358,2.1384,2.1411,2.1432,2.1402,2.1522,2.1533,2.1544,2.1583,2.1598,2.142,2.142,2.142,2.1419,0,2.0838,2.09,2.0949,2.1017,2.1059,2.1127,2.1153,2.1194,2.1198,2.1221,2.1308,2.1351,2.1418,2.1442,2.1447,2.1547,2.1535,2.1518,2.1481,2.1561,2.1598,2.1613,2.1424,2.1423,2.1422,2.1422,0,0,2.0946,2.1022,2.104,2.1071,2.1132,2.1181,2.125,2.1315,2.1351,2.14,2.1459,2.1546,2.1532,2.157,2.1579,2.1627,2.1713,2.1605,2.1606,2.1625,2.1828,2.1841,2.1858,2.1709,2.1712,2.1714,2.1824,0,2.1045,2.1165,2.1181,2.1289,2.1348,2.1345,2.1406,2.145,2.1474,2.1528,2.1555,2.1617,2.1592,2.1615,2.1662,2.1692,2.1754,2.1684,2.1767,2.1769,2.1754,2.1877,2.1891,2.1992,2.1838,2.1841,2.1843,0,2.1175,2.1228,2.1342,2.1396,2.1422,2.1475,2.1538,2.1589,2.164,2.1654,2.1698,2.1702,2.1775,2.1734,2.1837,2.1789,2.1824,2.1844,2.1848,2.1857,2.1812,2.1891,2.2025,2.204,2.1865,2.1863,2.1862,0,2.1246,2.1345,2.1427,2.1454,2.1518,2.1556,2.1585,2.1634,2.1673,2.1727,2.1753,2.1815,2.185,2.1899,2.1921,2.1889,2.2023,2.1983,2.2038,2.2038,2.2067,2.2065,2.221,2.2087,2.2087,2.2087,2.2086,0,2.1355,2.1425,2.1459,2.151,2.1589,2.1607,2.1685,2.1713,2.1756,2.1813,2.1815,2.1868,2.1893,2.1951,2.1969,2.2052,2.2067,2.2082,2.2086,2.2083,2.2081,2.2106,2.2101,2.2091,2.209,2.2089,2.2088,0,2.1447,2.1472,2.1561,2.1615,2.163,2.1687,2.1734,2.1784,2.1807,2.1879,2.1897,2.1934,2.2003,2.2029,2.2113,2.2125,2.2222,2.2219,2.2204,2.2206,2.226,2.2255,2.2427,2.2451,2.2311,2.2312,2.2313,0,2.1515,2.1569,2.1629,2.1667,2.1698,2.1758,2.1798,2.1818,2.186,2.1924,2.1966,2.2035,2.209,2.22,2.2236,2.2301,2.2301,2.2357,2.2311,2.2306,2.2304,2.2301,2.2308,2.2365,2.2367,2.2368,2.2369,0,2.1635,2.1646,2.1702,2.1765,2.1812,2.1862,2.1911,2.1942,2.197,2.2017,2.2087,2.213,2.2216,2.2285,2.2352,2.2383,2.2382,2.2383,2.24,2.2397,2.2387,2.2396,2.2229,2.2379,2.2378,2.2378,2.2377,2.2377,2.1719,2.1768,2.1818,2.1882,2.1921,2.1967,2.2017,2.2047,2.2105,2.2176,2.2185,2.2261,2.2313,2.2402,2.2437,2.2497,2.2483,2.2506,2.2512,2.2518,2.2523,2.2376,2.2509,2.2509,2.2509,2.2509,2.2509,0,2.1841,2.1873,2.1932,2.2,2.2051,2.2044,2.2098,2.2142,2.2208,2.2256,2.2312,2.2393,2.246,2.2501,2.2569,2.261,2.2612,2.2628,2.2626,2.2633,2.2531,2.2511,2.2626,2.2626,2.2626,2.2626,2.2626,2.2626,2.191,2.1993,2.201,2.2113,2.2145,2.2219,2.2251,2.2294,2.2332,2.2423,2.2479,2.2505,2.2551,2.2623,2.2685,2.2695,2.2721,2.2739,2.2748,2.2652,2.264,2.2629,2.261,2.2744,2.2744,2.2846,2.2847,2.2848]},{"header":{"parameterUnit":"m.s-1","parameterCategory":1,"la1":30.2991,"la2":30.254,"lo1":-89.0895,"lo2":-89.0444,"dy":0.0017,"dx":0.0017,"nx":28,"ny":28,"refTime":"2024-08-09T21:00:00:Z","depth":0,"parameterNumber":3,"parameterNumberName":"V-component_of_WINDS"},"data":[0,0,0,0,0,0,0,0,0,0,0,0,0,0,0,0,0,0,0,0,0,0,0,0,0,0,0,0,0,0,0,0,0,0,0,0,0,0,0,0,0,0,0,0,0,0,0,0,0,0,0,0,0,0,0,0,0,0,-0.4381,-0.4381,0,-0.4361,-0.4361,-0.436,-0.4381,-0.4382,-0.4383,-0.4383,-0.436,-0.4358,-0.4357,0,0,0,0,0,0,0,0,0,0,0,0,0,-0.4435,-0.4434,-0.4381,-0.4381,-0.4381,-0.4361,-0.4361,-0.436,-0.4381,-0.4382,-0.4383,-0.4384,-0.436,-0.4359,-0.4357,0,0,0,0,0,0,0,0,0,0,0,0,0,-0.4412,-0.4433,-0.4381,-0.4389,-0.4389,-0.4361,-0.4361,-0.436,-0.4381,-0.4382,-0.4383,-0.4384,-0.4361,-0.4359,-0.4357,-0.4319,0,0,-0.435,-0.4349,0,0,0,0,0,0,0,0,-0.4414,-0.4411,-0.4388,-0.4388,-0.4389,-0.4375,-0.4371,-0.4346,-0.438,-0.4384,-0.4383,-0.4385,-0.4364,-0.4361,-0.4355,-0.4318,-0.4317,-0.435,-0.4349,-0.4348,-0.4347,0,0,0,0,0,0,0,-0.4415,-0.4411,-0.4373,-0.4387,-0.4388,-0.4392,-0.439,-0.4366,-0.4367,-0.4383,-0.4385,-0.4382,-0.4364,-0.4357,-0.4354,-0.4317,-0.435,-0.4348,-0.4347,-0.4346,-0.4248,-0.4246,0,0,0,0,0,0,-0.4416,-0.4413,-0.4374,-0.4372,-0.4404,-0.439,-0.4388,-0.4378,-0.4367,-0.4367,-0.4381,-0.4383,-0.436,-0.4357,-0.4354,-0.4308,-0.4348,-0.4346,-0.4345,-0.4249,-0.4247,-0.4246,0,0,0,0,0,0,-0.4417,-0.4413,-0.4375,-0.4393,-0.4388,-0.4388,-0.4376,-0.4377,-0.437,-0.4366,-0.4366,-0.4374,-0.436,-0.4356,-0.4328,-0.4308,-0.4345,-0.4343,-0.4251,-0.4249,-0.4247,-0.4218,0,0,0,0,0,0,-0.4419,-0.4413,-0.44,-0.4393,-0.4387,-0.435,-0.4375,-0.4376,-0.4366,-0.4369,-0.4359,-0.4358,-0.4361,-0.4331,-0.4326,-0.4305,-0.4342,-0.4252,-0.425,-0.4247,-0.422,-0.4215,-0.421,0,0,0,0,0,-0.4421,-0.4392,-0.4399,-0.4394,-0.4371,-0.4349,-0.4345,-0.435,-0.4365,-0.435,-0.4348,-0.4359,-0.4311,-0.4328,-0.4322,-0.4301,-0.4254,-0.425,-0.4247,-0.4223,-0.4216,-0.421,0,0,0,0,0,0,-0.4395,-0.4391,-0.4399,-0.4367,-0.4358,-0.4352,-0.4334,-0.4343,-0.4329,-0.4332,-0.4338,-0.4335,-0.4304,-0.43,-0.4319,-0.4264,-0.4285,-0.428,-0.4267,-0.4261,-0.4256,-0.4257,-0.434,0,0,0,0,0,-0.4386,-0.437,-0.4367,-0.4339,-0.4334,-0.4335,-0.4325,-0.433,-0.4321,-0.4317,-0.4312,-0.4302,-0.4284,-0.4273,-0.4257,-0.422,-0.4217,-0.4203,-0.4198,-0.4194,-0.4189,-0.4168,-0.4161,-0.4236,-0.4236,-0.4236,0,0,-0.4367,-0.4363,-0.4351,-0.4333,-0.4327,-0.4308,-0.4332,-0.4311,-0.4297,-0.4313,-0.4286,-0.4282,-0.4271,-0.4238,-0.4223,-0.4233,-0.4168,-0.419,-0.4187,-0.4184,-0.4164,-0.4157,-0.4151,-0.4234,-0.4234,-0.4234,0,0,-0.4322,-0.4318,-0.4293,-0.4287,-0.4277,-0.4278,-0.4272,-0.4265,-0.4263,-0.4236,-0.4247,-0.423,-0.4201,-0.4192,-0.4184,-0.4135,-0.4144,-0.413,-0.4102,-0.4082,-0.4076,-0.4071,-0.4052,-0.4045,-0.4126,-0.4126,-0.4126,0,-0.4298,-0.4272,-0.4279,-0.4258,-0.4249,-0.4264,-0.4239,-0.4232,-0.4217,-0.421,-0.4222,-0.4185,-0.4178,-0.4143,-0.4131,-0.4124,-0.4117,-0.413,-0.4077,-0.4071,-0.4066,-0.4048,-0.4041,-0.4124,-0.4124,-0.4125,-0.4125,0,-0.4243,-0.4224,-0.4206,-0.4192,-0.4181,-0.4158,-0.416,-0.4148,-0.4154,-0.4153,-0.4124,-0.4118,-0.41,-0.4092,-0.4097,-0.4057,-0.4063,-0.4076,-0.4097,-0.4057,-0.404,-0.4034,-0.4122,-0.4122,-0.4123,-0.4123,0,0,-0.418,-0.4171,-0.4164,-0.4157,-0.4148,-0.4133,-0.411,-0.4094,-0.4082,-0.4072,-0.4052,-0.4026,-0.4038,-0.4028,-0.4033,-0.4015,-0.3975,-0.403,-0.4029,-0.4018,-0.3928,-0.3917,-0.3909,-0.3982,-0.398,-0.3979,-0.3928,0,-0.4133,-0.4094,-0.41,-0.4062,-0.4044,-0.4058,-0.4038,-0.4029,-0.4028,-0.4012,-0.401,-0.3991,-0.4009,-0.4003,-0.3986,-0.3983,-0.3957,-0.3987,-0.3961,-0.396,-0.3961,-0.3901,-0.3889,-0.3841,-0.3922,-0.3921,-0.392,0,-0.4073,-0.4061,-0.4021,-0.4014,-0.4006,-0.3988,-0.3973,-0.3958,-0.3948,-0.3949,-0.3938,-0.3945,-0.3921,-0.3944,-0.391,-0.393,-0.392,-0.3917,-0.3915,-0.3911,-0.3936,-0.3893,-0.3826,-0.3818,-0.391,-0.3911,-0.3912,0,-0.4029,-0.4002,-0.3975,-0.3969,-0.3961,-0.3947,-0.3943,-0.3935,-0.3924,-0.3911,-0.3904,-0.3888,-0.3878,-0.3865,-0.3867,-0.3884,-0.3832,-0.3855,-0.383,-0.383,-0.3816,-0.3817,-0.3745,-0.3813,-0.3813,-0.3813,-0.3814,0,-0.3975,-0.3949,-0.3955,-0.3937,-0.3909,-0.3916,-0.3887,-0.3885,-0.3877,-0.3859,-0.387,-0.3853,-0.3858,-0.384,-0.3842,-0.3812,-0.3809,-0.3807,-0.3807,-0.3805,-0.3805,-0.3796,-0.3799,-0.3812,-0.3812,-0.3812,-0.3813,0,-0.3919,-0.3923,-0.3893,-0.3888,-0.3886,-0.3865,-0.3859,-0.3843,-0.3843,-0.3819,-0.3814,-0.3814,-0.3794,-0.3795,-0.3772,-0.3774,-0.3736,-0.3742,-0.374,-0.374,-0.3714,-0.3716,-0.3633,-0.3622,-0.3699,-0.3698,-0.3697,0,-0.3884,-0.3864,-0.3857,-0.3846,-0.3841,-0.3823,-0.3812,-0.3819,-0.3807,-0.3794,-0.3779,-0.376,-0.3745,-0.3711,-0.3708,-0.369,-0.3694,-0.3666,-0.3691,-0.3689,-0.3691,-0.3692,-0.3689,-0.3661,-0.366,-0.3659,-0.3659,0,-0.3819,-0.3822,-0.3807,-0.3792,-0.3779,-0.3767,-0.3757,-0.3747,-0.3752,-0.3738,-0.3718,-0.3706,-0.3683,-0.3663,-0.3646,-0.3641,-0.3649,-0.3651,-0.3644,-0.364,-0.3639,-0.3637,-0.3724,-0.3652,-0.3653,-0.3654,-0.3654,-0.3654,-0.3771,-0.3754,-0.3746,-0.3729,-0.3722,-0.3712,-0.3695,-0.3694,-0.3677,-0.3659,-0.3664,-0.364,-0.3631,-0.3609,-0.3602,-0.3583,-0.3593,-0.3583,-0.358,-0.3577,-0.3573,-0.3644,-0.358,-0.358,-0.3581,-0.3581,-0.3581,0,-0.3706,-0.3702,-0.3686,-0.3671,-0.3656,-0.3668,-0.3657,-0.3644,-0.3623,-0.3614,-0.3599,-0.3575,-0.3556,-0.3552,-0.3534,-0.3519,-0.3523,-0.3514,-0.3514,-0.3512,-0.3566,-0.3573,-0.3511,-0.3511,-0.3511,-0.3511,-0.3511,-0.3511,-0.367,-0.3641,-0.3643,-0.3611,-0.3607,-0.3584,-0.3577,-0.3567,-0.3559,-0.3532,-0.3517,-0.3515,-0.3507,-0.3488,-0.3471,-0.347,-0.3461,-0.345,-0.3451,-0.3501,-0.3508,-0.3515,-0.3521,-0.3449,-0.3449,-0.3398,-0.3398,-0.3397]}]]